BEIDOU-3 M10 (C30)

Last updated on Sat Oct 18 2025 00:03:30 GMT+0000 (Coordinated Universal Time)

1 43246U 18029B 25289.10440604 -.00000049 00000+0 00000+0 0 9996 2 43246 54.4140 308.5052 0003051 354.7232 5.3135 1.86229107 51332
UTC large
Height (km)
Speed (km/s)
/
Latitude / Longitude
Inclination (degrees)
Orbital Period (minutes)
Azimuth
Elevation
Range (km)
Doppler Factor

Next 0 passes for location: London (51.5072 / 0.1276)

Sorry there are no passes over London.